Simultaneous Nadir Overpasses (SNOs) Predictions

Prediction of SNOs between AQUA and METOP-B Satellite Orbit:

Table of predicted SNOs for the next 14.0 days since TLE Epoch: 6/17/2023
Index Date (AQUA) Time (AQUA) Lat,Lon (AQUA) SZA (AQUA ) Date (METOP-B) Time (METOP-B) Lat,Lon (METOP-B) SZA (METOP-B ) Distance(km) Time Diff (sec)
1 06/18/2023 14:51:45 -74.52, 132.95 128.92 06/18/2023 14:50:49 -74.51, 132.89 128.93 2.23 56
2 06/18/2023 15:41:12 74.59, -59.57 51.15 06/18/2023 15:41:27 74.59, -59.56 51.15 0.49 15
3 06/21/2023 08:44:25 -74.55,-135.26 128.92 06/21/2023 08:43:48 -74.54,-135.28 128.92 1.65 37
4 06/21/2023 09:33:52 74.63, 32.20 51.16 06/21/2023 09:34:26 74.62, 32.26 51.15 1.98 34
5 06/24/2023 02:37:03 -74.58, -43.46 128.86 06/24/2023 02:36:46 -74.56, -43.48 128.88 2.31 17
6 06/24/2023 03:26:30 74.66, 123.99 51.22 06/24/2023 03:27:24 74.64, 124.06 51.20 3.23 54
7 06/26/2023 19:40:16 74.53,-119.12 51.16 06/26/2023 19:39:04 74.52,-119.16 51.16 1.61 72
8 06/26/2023 20:29:41 -74.61, 48.35 128.76 06/26/2023 20:29:44 -74.62, 48.43 128.75 2.96 3
9 06/26/2023 21:19:09 74.74,-144.34 51.39 06/26/2023 21:20:21 74.74,-143.91 51.37 12.68 72
10 06/29/2023 13:32:53 74.56, -27.30 51.32 06/29/2023 13:32:02 74.57, -27.28 51.34 2.02 51
11 06/29/2023 14:22:18 -74.62, 140.19 128.61 06/29/2023 14:22:43 -74.63, 140.19 128.61 0.25 25



Historial Predications of SNOs between AQUA and METOP-B
